Torna al catalogo

STARLINK-34420

AttivoComunicazioniVLEO
NORAD 64483·PAYLOAD·🇺🇸 United States

Lanciato Jun 23, 2025 da Cape Canaveral Space Force Station

Loading…

Prossimi Passaggi (prossime 24 ore)

TLE

AggiornatoSource: CelesTrak SupGP

Epoca: Sep 15, 2026, 03:15 UTC

1 64483C 25133M   26258.13590278  .00040630  00000+0  12003-2 0  2585
2 64483  53.1572 314.5383 0001235  99.0248 344.3518 15.34374622    16

Traccia STARLINK-34420 in tempo reale con AllMySat

Download on the App Store